Gassville, AR

8:36 PM CST on February 24, 2017 (GMT -0600)
Baxter County Regional

Weather History for KBPK - February, 2012

Change the Weather History Date:

Monday, February 20, 2012

  Actual Average (KFLP) Record (KFLP)
Temperature  
Mean Temperature 44 °F -  
Max Temperature 55 °F 51 °F 78 °F (2014)
Min Temperature 32 °F 32 °F 17 °F (2006)
Degree Days  
Heating Degree Days 22    
Moisture  
Dew Point 28 °F    
Average Humidity 57    
Maximum Humidity 82    
Minimum Humidity 29    
Precipitation  
Precipitation 0.01 in - - ()
Sea Level Pressure  
Sea Level Pressure 30.03 in    
Wind  
Wind Speed 9 mph (SE)    
Max Wind Speed 18 mph    
Max Gust Speed 25 mph    
Visibility 10 miles    
Events      
Averages and records for this station are not official NWS values.
T = Trace of Precipitation, MM = Missing Value Source: NWS Daily Summary

Daily Weather History Graph

Daily Weather History Graph

Search for Another Location

Airport or City:

Trip Planner

Search our weather history database for the weather conditions in past years. The results will help you decide how hot, cold, wet, or windy it might be!

Date:

Astronomy

Feb. 20, 2012 Rise Set
Actual Time 6:52 AM CST 5:55 PM CST
Civil Twilight 6:26 AM CST 6:21 PM CST
Nautical Twilight 5:56 AM CST 6:51 PM CST
Astronomical Twilight 5:26 AM CST 7:21 PM CST
Moon 5:48 AM CST (2/20) 5:00 PM CST (2/20)
Length of Visible Light 11h 55m
Length of Day
11h 03m
Waning Crescent, 1% of the Moon is Illuminated
Feb 20
Waning Crescent
Feb 21
New
Feb 29
First Quarter
Mar 8
Full
Mar 14
Last Quarter

Hourly Weather History & Observations

Time (CST) Temp. Windchill Dew Point Humidity Pressure Visibility Wind Dir Wind Speed Gust Speed Precip Events Conditions
12:53 AM 37.9 °F 32.7 °F 30.0 °F 73% 30.17 in 10.0 mi SE 6.9 mph - N/A   Clear
1:53 AM 37.0 °F 31.0 °F 30.0 °F 76% 30.16 in 10.0 mi ESE 8.1 mph - N/A   Clear
2:53 AM 37.0 °F 31.0 °F 28.9 °F 73% 30.13 in 10.0 mi ESE 8.1 mph - N/A   Clear
3:53 AM 35.1 °F 30.1 °F 27.0 °F 72% 30.13 in 10.0 mi ESE 5.8 mph - N/A   Clear
4:53 AM 33.1 °F 27.7 °F 27.0 °F 78% 30.14 in 10.0 mi ESE 5.8 mph - N/A   Clear
5:53 AM 32.0 °F 25.6 °F 25.0 °F 75% 30.15 in 10.0 mi ESE 6.9 mph - N/A   Clear
6:53 AM 32.0 °F 24.8 °F 25.0 °F 75% 30.16 in 10.0 mi ESE 8.1 mph - N/A   Clear
7:53 AM 34.0 °F 28.8 °F 26.1 °F 73% 30.17 in 10.0 mi East 5.8 mph - N/A   Clear
8:53 AM 37.9 °F 32.1 °F 26.1 °F 62% 30.19 in 10.0 mi SE 8.1 mph 17.3 mph N/A   Clear
9:53 AM 42.1 °F 34.9 °F 27.0 °F 55% 30.19 in 10.0 mi SE 13.8 mph - N/A   Clear
10:53 AM 46.0 °F 40.2 °F 26.1 °F 46% 30.16 in 10.0 mi SE 12.7 mph 18.4 mph N/A   Clear
11:53 AM 52.0 °F - 26.1 °F 37% 30.12 in 10.0 mi SSE 13.8 mph 21.9 mph N/A   Clear
12:53 PM 53.1 °F - 26.1 °F 35% 30.05 in 10.0 mi ESE 12.7 mph 25.3 mph N/A   Clear
1:53 PM 55.9 °F - 24.1 °F 29% 29.99 in 10.0 mi SSE 18.4 mph 24.2 mph N/A   Clear
2:53 PM 55.9 °F - 25.0 °F 30% 29.95 in 10.0 mi SSE 17.3 mph 25.3 mph N/A   Clear
3:53 PM 55.0 °F - 26.1 °F 33% 29.94 in 10.0 mi SSE 13.8 mph 24.2 mph N/A   Clear
4:53 PM 53.1 °F - 27.0 °F 37% 29.91 in 10.0 mi SSE 12.7 mph 20.7 mph N/A   Scattered Clouds
5:53 PM 52.0 °F - 28.0 °F 40% 29.89 in 10.0 mi SE 10.4 mph - N/A   Overcast
6:53 PM 50.0 °F - 30.0 °F 46% 29.88 in 10.0 mi SE 13.8 mph 21.9 mph N/A   Mostly Cloudy
7:53 PM 48.9 °F - 30.9 °F 50% 29.87 in 10.0 mi SE 10.4 mph - N/A   Mostly Cloudy
8:53 PM 48.0 °F - 30.9 °F 52% 29.81 in 10.0 mi SE 10.4 mph 19.6 mph N/A   Scattered Clouds
10:53 PM 45.0 °F 41.2 °F 39.9 °F 82% 29.80 in 10.0 mi SSW 6.9 mph - 0.01 in   Clear
11:53 PM 45.0 °F 39.3 °F 39.0 °F 80% 29.80 in 10.0 mi SSW 11.5 mph 19.6 mph N/A   Scattered Clouds